2013/5/1,0,1642,0,18,97,86,0,0
2013/5/1 0:05,0,1642,0,15,89,78,0,1
2013/5/1 0:10,0,1642,0,8,59,62,0,0
2013/5/1 0:15,0,1642,0,13,74,81,0,0
2013/5/1 0:20,0,1642,0,8,57,65,0,0
2013/5/1 0:25,0,1642,0,17,109,72,0,0
2013/5/1 0:30,0,1642,0,13,72,83,0,0
2013/5/1 0:35,0,1642,0,11,61,83,0,0
2013/5/1 0:40,0,1642,0,10,73,63,0,0
2013/5/1 0:45,0,1642,0,16,101,73,0,0
2013/5/1 0:50,0,1642,0,12,75,74,0,0
2013/5/1 0:55,0,1642,0,11,60,84,0,0
2013/5/1 1:00,0,1642,0,16,99,74,0,1
2013/5/1 1:05,0,1642,0,7,43,75,0,0
2013/5/1 1:10,0,1642,0,14,94,69,0,0
2013/5/1 1:15,0,1642,0,14,75,86,0,0
2013/5/1 1:20,0,1642,0,8,49,75,0,0
2013/5/1 1:25,0,1642,0,13,97,62,0,0
2013/5/1 1:30,0,1642,0,9,58,72,0,0
2013/5/1 1:35,0,1642,0,10,63,73,0,0
2013/5/1 1:40,0,1642,0,8,54,68,0,0
2013/5/1 1:45,0,1642,0,9,70,59,0,0
2013/5/1 1:50,0,1642,0,8,53,70,0,0
2013/5/1 1:55,0,1642,0,10,70,66,0,0
2013/5/1 2:00,0,1642,0,11,70,72,0,0
2013/5/1 2:05,0,1642,0,15,101,68,0,1
2013/5/1 2:10,0,1642,0,17,107,73,0,0
2013/5/1 2:15,0,1642,0,10,67,69,0,0
2013/5/1 2:20,0,1642,0,12,87,64,0,0
2013/5/1 2:25,0,1642,0,12,79,70,0,0
2013/5/1 2:30,0,1642,0,5,31,74,0,0
2013/5/1 2:35,0,1642,0,6,41,67,0,0
2013/5/1 2:40,0,1642,0,5,36,64,0,0
2013/5/1 2:45,0,1642,0,8,48,77,0,0
2013/5/1 2:50,0,1642,0,12,101,55,0,0
2013/5/1 2:55,0,1642,0,16,117,63,0,0
2013/5/1 3:00,0,1642,0,4,26,71,0,0
2013/5/1 3:05,0,1642,0,8,54,68,0,0
2013/5/1 3:10,0,1642,0,6,37,75,0,0
2013/5/1 3:15,0,1642,0,9,67,62,0,0
2013/5/1 3:20,0,1642,0,9,66,63,0,0
2013/5/1 3:25,0,1642,0,12,80,69,0,0
2013/5/1 3:30,0,1642,0,4,22,84,0,0
2013/5/1 3:35,0,1642,0,7,43,75,0,0
2013/5/1 3:40,0,1642,0,7,62,52,0,0
2013/5/1 3:45,0,1642,0,5,27,85,0,0
2013/5/1 3:50,0,1642,0,12,88,63,0,0
2013/5/1 3:55,0,1642,0,11,71,71,0,0
2013/5/1 4:00,0,1642,0,13,102,59,0,0
2013/5/1 4:05,0,1642,0,5,51,45,0,0
2013/5/1 4:10,0,1642,0,8,44,84,0,0
2013/5/1 4:15,0,1642,0,8,76,49,0,0
2013/5/1 4:20,0,1642,0,11,69,73,0,0
2013/5/1 4:25,0,1642,0,16,143,52,0,0
2013/5/1 4:30,0,1642,0,8,60,61,0,0
2013/5/1 4:35,0,1642,0,10,91,51,0,0
2013/5/1 4:40,0,1642,0,18,117,71,0,0
2013/5/1 4:45,0,1642,0,13,92,65,0,0
2013/5/1 4:50,0,1642,0,10,70,66,0,0
2013/5/1 4:55,0,1642,0,16,110,67,0,0
2013/5/1 5:00,0,1642,0,10,85,54,0,0
2013/5/1 5:05,0,1642,0,14,83,78,0,0
2013/5/1 5:10,0,1642,0,11,80,63,0,1
2013/5/1 5:15,0,1642,0,20,127,73,0,0
2013/5/1 5:20,0,1642,0,15,120,58,0,0
2013/5/1 5:25,0,1642,0,20,145,64,0,0
2013/5/1 5:30,0,1642,0,18,104,80,0,0
2013/5/1 5:35,0,1642,0,17,120,65,0,1
2013/5/1 5:40,0,1642,0,21,132,73,0,0
2013/5/1 5:45,0,1642,0,20,127,73,0,0
2013/5/1 5:50,0,1642,0,20,112,82,0,0
2013/5/1 5:55,0,1642,0,20,149,62,0,0
2013/5/1 6:00,0,1642,0,26,161,74,0,1
2013/5/1 6:05,0,1642,0,24,168,66,0,0
2013/5/1 6:10,0,1642,0,26,177,68,0,0
2013/5/1 6:15,0,1642,0,27,168,74,0,1
2013/5/1 6:20,0,1642,0,27,192,65,0,0
2013/5/1 6:25,0,1642,0,32,220,67,0,0
2013/5/1 6:30,0,1642,0,33,220,69,0,0
2013/5/1 6:35,0,1642,0,38,276,63,0,2
2013/5/1 6:40,0,1642,0,34,213,74,0,0
2013/5/1 6:45,0,1642,0,41,247,76,0,0
2013/5/1 6:50,0,1642,0,37,239,71,0,1
2013/5/1 6:55,0,1642,0,46,307,69,0,0
2013/5/1 7:00,0,1642,0,33,216,70,0,1
2013/5/1 7:05,0,1642,0,43,287,69,0,0
2013/5/1 7:10,0,1642,0,37,257,66,0,1
2013/5/1 7:15,0,1642,0,58,387,69,0,0
2013/5/1 7:20,0,1642,0,38,265,66,0,4
2013/5/1 7:25,0,1642,0,58,380,70,0,3
2013/5/1 7:30,0,1642,0,40,231,80,0,0
2013/5/1 7:35,0,1642,0,55,408,62,0,0
2013/5/1 7:40,0,1642,0,42,292,66,0,0
2013/5/1 7:45,0,1642,0,53,328,74,0,0
2013/5/1 7:50,0,1642,0,44,270,75,0,3
2013/5/1 7:55,0,1642,0,52,321,75,0,1
2013/5/1 8:00,0,1642,0,35,213,76,0,0
2013/5/1 8:05,0,1642,0,43,273,73,0,0
2013/5/1 8:10,0,1642,0,41,240,79,0,2
2013/5/1 8:15,0,1642,0,61,407,69,0,1
2013/5/1 8:20,0,1642,0,40,231,80,0,0
2013/5/1 8:25,0,1642,0,53,374,65,0,1
2013/5/1 8:30,0,1642,0,42,261,74,0,0
2013/5/1 8:35,0,1642,0,47,315,69,0,2
2013/5/1 8:40,0,1642,0,41,254,74,0,0
2013/5/1 8:45,0,1642,0,54,346,72,0,0
2013/5/1 8:50,0,1642,0,48,335,66,0,1
2013/5/1 8:55,0,1642,0,50,315,73,0,0
2013/5/1 9:00,0,1642,0,41,276,68,0,0
2013/5/1 9:05,0,1642,0,47,310,70,0,0
2013/5/1 9:10,0,1642,0,36,253,66,0,0
2013/5/1 9:15,0,1642,0,49,281,80,0,0
2013/5/1 9:20,0,1642,0,35,216,75,0,1
2013/5/1 9:25,0,1642,0,44,262,77,0,0
2013/5/1 9:30,0,1642,0,33,225,68,0,0
2013/5/1 9:35,0,1642,0,57,356,74,0,0
2013/5/1 9:40,0,1642,0,40,269,69,0,0
2013/5/1 9:45,0,1642,0,46,290,73,0,0
2013/5/1 9:50,0,1642,0,35,270,60,0,0
2013/5/1 9:55,0,1642,0,50,307,75,0,0
2013/5/1 10:00,0,1642,0,34,221,71,0,0
2013/5/1 10:05,0,1642,0,46,317,67,0,0
2013/5/1 10:10,0,1642,0,42,261,74,0,0
2013/5/1 10:15,0,1642,0,49,308,73,0,0
2013/5/1 10:20,0,1642,0,53,314,78,0,0
2013/5/1 10:25,0,1642,0,50,316,73,0,1
2013/5/1 10:30,0,1642,0,39,246,73,0,0
2013/5/1 10:35,0,1642,0,52,341,70,0,0
2013/5/1 10:40,0,1642,0,39,264,68,0,0
2013/5/1 10:45,0,1642,0,55,332,76,0,0
2013/5/1 10:50,0,1642,0,40,263,70,0,0
2013/5/1 10:55,0,1642,0,51,344,68,0,0
2013/5/1 11:00,0,1642,0,46,275,77,0,0
2013/5/1 11:05,0,1642,0,55,362,70,0,0
2013/5/1 11:10,0,1642,0,50,300,77,0,0
2013/5/1 11:15,0,1642,0,51,352,67,0,2
2013/5/1 11:20,0,1642,0,40,265,70,0,0
2013/5/1 11:25,0,1642,0,43,279,71,0,0
2013/5/1 11:30,0,1642,0,50,303,76,0,0
2013/5/1 11:35,0,1642,0,58,332,81,0,0
2013/5/1 11:40,0,1642,0,42,248,78,0,1
2013/5/1 11:45,0,1642,0,45,293,71,0,0
2013/5/1 11:50,0,1642,0,32,205,72,0,0
2013/5/1 11:55,0,1642,0,46,287,74,0,1
2013/5/1 12:00,0,1642,0,40,240,77,0,0
2013/5/1 12:05,0,1642,0,46,265,80,0,1
2013/5/1 12:10,0,1642,0,39,230,78,0,1
2013/5/1 12:15,0,1642,0,43,255,78,0,2
2013/5/1 12:20,0,1642,0,32,186,79,0,0
2013/5/1 12:25,0,1642,0,44,266,76,0,2
2013/5/1 12:30,0,1642,0,32,210,70,0,0
2013/5/1 12:35,0,1642,0,44,246,82,0,1
2013/5/1 12:40,0,1642,0,39,247,73,0,0
2013/5/1 12:45,0,1642,0,50,301,77,0,1
2013/5/1 12:50,0,1642,0,34,214,73,0,0
2013/5/1 12:55,0,1642,0,37,221,77,0,0
2013/5/1 13:00,0,1642,0,39,265,68,0,0
2013/5/1 13:05,0,1642,0,61,368,76,0,0
2013/5/1 13:10,0,1642,0,30,176,79,0,0
2013/5/1 13:15,0,1642,0,49,301,75,0,0
2013/5/1 13:20,0,1642,0,36,218,76,0,0
2013/5/1 13:25,0,1642,0,51,330,71,0,0
2013/5/1 13:30,0,1642,0,49,356,63,0,0
2013/5/1 13:35,0,1642,0,42,264,73,0,0
2013/5/1 13:40,0,1642,0,38,236,74,0,0
2013/5/1 13:45,0,1642,0,45,276,75,0,0
2013/5/1 13:50,0,1642,0,41,253,75,0,0
2013/5/1 13:55,0,1642,0,50,294,78,0,0
2013/5/1 14:00,0,1642,0,45,270,77,0,0
2013/5/1 14:05,0,1642,0,49,285,79,0,0
2013/5/1 14:10,0,1642,0,44,255,80,0,2
2013/5/1 14:15,0,1642,0,52,341,70,0,0
2013/5/1 14:20,0,1642,0,27,151,82,0,0
2013/5/1 14:25,0,1642,0,37,221,77,0,0
2013/5/1 14:30,0,1642,0,38,250,70,0,0
2013/5/1 14:35,0,1642,0,56,338,76,0,0
2013/5/1 14:40,0,1642,0,44,299,68,0,1
2013/5/1 14:45,0,1642,0,57,352,75,0,1
2013/5/1 14:50,0,1642,0,56,327,79,0,0
2013/5/1 14:55,0,1642,0,54,341,73,0,1
2013/5/1 15:00,0,1642,0,45,263,79,0,2
2013/5/1 15:05,0,1642,0,47,284,76,0,0
2013/5/1 15:10,0,1642,0,46,262,81,0,1
2013/5/1 15:15,0,1642,0,46,277,77,0,0
2013/5/1 15:20,0,1642,0,37,253,67,0,0
2013/5/1 15:25,0,1642,0,43,254,78,0,0
2013/5/1 15:30,0,1642,0,37,229,74,0,1
2013/5/1 15:35,0,1642,0,59,339,80,0,0
2013/5/1 15:40,0,1642,0,38,232,75,0,0
2013/5/1 15:45,0,1642,0,49,306,74,0,0
2013/5/1 15:50,0,1642,0,45,281,74,0,0
2013/5/1 15:55,0,1642,0,47,286,76,0,1
2013/5/1 16:00,0,1642,0,38,234,75,0,0
2013/5/1 16:05,0,1642,0,44,289,70,0,0
2013/5/1 16:10,0,1642,0,31,207,69,0,0
2013/5/1 16:15,0,1642,0,49,322,70,0,0
2013/5/1 16:20,0,1642,0,35,208,78,0,0
2013/5/1 16:25,0,1642,0,44,266,76,0,0
2013/5/1 16:30,0,1642,0,34,224,70,0,0
2013/5/1 16:35,0,1642,0,52,305,79,0,1
2013/5/1 16:40,0,1642,0,48,316,70,0,0
2013/5/1 16:45,0,1642,0,50,281,82,0,0
2013/5/1 16:50,0,1642,0,32,204,72,0,0
2013/5/1 16:55,0,1642,0,44,284,71,0,1
2013/5/1 17:00,0,1642,0,33,185,82,0,1
2013/5/1 17:05,0,1642,0,53,309,79,0,0
2013/5/1 17:10,0,1642,0,51,310,76,0,0
2013/5/1 17:15,0,1642,0,53,339,72,0,1
2013/5/1 17:20,0,1642,0,34,202,78,0,1
2013/5/1 17:25,0,1642,0,52,329,73,0,1
2013/5/1 17:30,0,1642,0,42,244,79,0,0
2013/5/1 17:35,0,1642,0,56,314,82,0,0
2013/5/1 17:40,0,1642,0,36,222,75,0,0
2013/5/1 17:45,0,1642,0,52,315,76,0,0
2013/5/1 17:50,0,1642,0,37,205,83,0,1
2013/5/1 17:55,0,1642,0,51,325,72,0,0
2013/5/1 18:00,0,1642,0,40,253,73,0,1
2013/5/1 18:05,0,1642,0,47,288,75,0,0
2013/5/1 18:10,0,1642,0,36,205,81,0,0
2013/5/1 18:15,0,1642,0,60,332,83,0,2
2013/5/1 18:20,0,1642,0,33,212,72,0,0
2013/5/1 18:25,0,1642,0,46,280,76,0,1
2013/5/1 18:30,0,1642,0,38,254,69,0,0
2013/5/1 18:35,0,1642,0,41,239,79,0,0
2013/5/1 18:40,0,1642,0,40,247,75,0,0
2013/5/1 18:45,0,1642,0,47,273,79,0,0
2013/5/1 18:50,0,1642,0,38,228,77,0,1
2013/5/1 18:55,0,1642,0,38,233,75,0,0
2013/5/1 19:00,0,1642,0,29,157,85,0,1
2013/5/1 19:05,0,1642,0,40,269,69,0,0
2013/5/1 19:10,0,1642,0,29,168,80,0,1
2013/5/1 19:15,0,1642,0,37,216,79,0,0
2013/5/1 19:20,0,1642,0,26,158,76,0,0
2013/5/1 19:25,0,1642,0,40,247,75,0,0
2013/5/1 19:30,0,1642,0,32,193,76,0,0
2013/5/1 19:35,0,1642,0,41,246,77,0,0
2013/5/1 19:40,0,1642,0,28,158,82,0,0
2013/5/1 19:45,0,1642,0,31,204,70,0,0
2013/5/1 19:50,0,1642,0,29,182,73,0,0
2013/5/1 19:55,0,1642,0,47,282,77,0,0
2013/5/1 20:00,0,1642,0,25,148,78,0,0
2013/5/1 20:05,0,1642,0,37,207,82,0,0
2013/5/1 20:10,0,1642,0,27,157,79,0,0
2013/5/1 20:15,0,1642,0,26,150,80,0,0
2013/5/1 20:20,0,1642,0,30,177,78,0,0
2013/5/1 20:25,0,1642,0,28,175,74,0,0
2013/5/1 20:30,0,1642,0,22,134,76,0,0
2013/5/1 20:35,0,1642,0,42,233,83,0,1
2013/5/1 20:40,0,1642,0,30,177,78,0,1
2013/5/1 20:45,0,1642,0,29,183,73,0,0
2013/5/1 20:50,0,1642,0,21,129,75,0,0
2013/5/1 20:55,0,1642,0,27,163,76,0,0
2013/5/1 21:00,0,1642,0,29,160,84,0,0
2013/5/1 21:05,0,1642,0,22,133,76,0,0
2013/5/1 21:10,0,1642,0,28,166,78,0,0
2013/5/1 21:15,0,1642,0,20,120,77,0,0
2013/5/1 21:20,0,1642,0,24,149,74,0,0
2013/5/1 21:25,0,1642,0,23,140,76,0,0
2013/5/1 21:30,0,1642,0,28,169,76,0,0
2013/5/1 21:35,0,1642,0,32,200,74,0,0
2013/5/1 21:40,0,1642,0,21,125,77,0,1
2013/5/1 21:45,0,1642,0,23,145,73,0,2
2013/5/1 21:50,0,1642,0,20,117,79,0,0
2013/5/1 21:55,0,1642,0,22,124,82,0,0
2013/5/1 22:00,0,1642,0,14,80,81,0,0
2013/5/1 22:05,0,1642,0,18,111,75,0,1
2013/5/1 22:10,0,1642,0,26,152,79,0,0
2013/5/1 22:15,0,1642,0,14,78,83,0,0
2013/5/1 22:20,0,1642,0,12,72,77,0,0
2013/5/1 22:25,0,1642,0,19,109,80,0,0
2013/5/1 22:30,0,1642,0,20,130,71,0,0
2013/5/1 22:35,0,1642,0,15,97,71,0,0
2013/5/1 22:40,0,1642,0,19,115,76,0,0
2013/5/1 22:45,0,1642,0,13,76,79,0,0
2013/5/1 22:50,0,1642,0,15,89,78,0,0
2013/5/1 22:55,0,1642,0,18,99,84,0,0
2013/5/1 23:00,0,1642,0,20,134,69,0,0
2013/5/1 23:05,0,1642,0,15,91,76,0,0
2013/5/1 23:10,0,1642,0,13,80,75,0,0
2013/5/1 23:15,0,1642,0,17,99,79,0,0
2013/5/1 23:20,0,1642,0,19,120,73,0,0
2013/5/1 23:25,0,1642,0,8,40,92,0,0
2013/5/1 23:30,0,1642,0,11,74,68,0,1
2013/5/1 23:35,0,1642,0,17,137,57,0,0
2013/5/1 23:40,0,1642,0,10,59,78,0,0
2013/5/1 23:45,0,1642,0,12,75,74,0,0
2013/5/1 23:50,0,1642,0,12,77,72,0,0
2013/5/1 23:55,0,1642,0,16,100,74,0,0
